Find Starlink 32615

NORAD ID: 62034 Int'l Des: 2024-216 Owner: SPXS Country: US Constellation: starlink operational
LEOCIRCULAR

現在のビュー

3D地球を読み込み中...

About Starlink 32615

Starlink 32615 (NORAD 62034) is a starlink constellation satellite (v2 mini) launched Nov 21, 2024 by SPXS of US. It operates in LEO, CIRCULAR orbit with a mass of 730.00 kg.

次回通過

Passes for default location (London). Set your location on the main map for personalized predictions.

高度履歴

Loading altitude history...

軌道要素

1 62034U 24216C 26264.25624856 .00009640 00000-0 35928-3 0 9997
2 62034 42.9996 231.9852 0001539 265.1296 94.9380 15.27589031102620
Epoch: Sep 21, 2026 • Age: 10 hours

現在のステータス

高度 483.6 km
遠地点 / 近地点 N/A
速度 7.63 km/s
衛星直下点 26.06°N, 135°E
打ち上げ日 Nov 21, 2024
運用期間 1.8 years
タイプ internet

技術仕様

分類 Payload
質量 730.00 kg
乾燥質量 700.00 kg
長さ 0.30 m
スパン 29.00 m
形状 ? Box + pan
製造者 SPXS
バスタイプ Starlink V2M
フェーズステータス In Orbit
所有者/国 SPXS/US

Most Searched